#timestamp,LO_Frequency,Hit,Temp,Hum 
1480075215.3,286046992.3,N,0.0,0.0
1480075235.1,286046993.1,N,0.0,0.0
1480075236.0,286046993.1,N,0.0,0.0
1480075255.8,286046992.0,N,0.0,0.0
1480075275.7,286046993.1,N,0.0,0.0
1480075295.5,286046993.1,N,0.0,0.0
1480075315.3,286046990.7,N,0.0,0.0
1480075335.2,286046988.5,N,0.0,0.0
1480075355.0,286046988.9,N,0.0,0.0
1480075355.9,286046988.9,N,0.0,0.0
1480075375.8,286046989.3,N,0.0,0.0
1480075395.6,286046989.2,N,0.0,0.0
1480075415.4,286046989.9,N,0.0,0.0
1480075435.3,286046987.9,N,0.0,0.0
1480075455.1,286046985.9,N,0.0,0.0
1480075475.9,286046985.6,N,0.0,0.0
1480075495.7,286046986.3,N,0.0,0.0
1480075515.5,286046984.3,N,0.0,0.0
1480075535.4,286046984.9,N,0.0,0.0
1480075555.2,286046985.1,N,0.0,0.0
1480075575.0,286046982.2,N,0.0,0.0
1480075575.9,286046982.2,N,0.0,0.0
1480075595.8,286046982.6,N,0.0,0.0
1480075615.6,286046983.3,N,0.0,0.0
1480075635.5,286046981.0,N,0.0,0.0
1480075655.3,286046983.4,N,0.0,0.0
1480075675.1,286046980.7,N,0.0,0.0
1480075695.9,286046983.5,N,0.0,0.0
1480075715.7,286046980.9,N,0.0,0.0
1480075735.6,286046979.6,N,0.0,0.0
1480075755.4,286046977.5,N,0.0,0.0
1480075775.2,286046978.0,N,0.0,0.0
1480075795.1,286046980.4,N,0.0,0.0
1480075796.0,286046980.4,N,0.0,0.0
1480075815.8,286046978.5,N,0.0,0.0
1480075835.6,286046976.0,N,0.0,0.0
1480075855.5,286046974.2,N,0.0,0.0
1480075875.3,286046976.7,N,0.0,0.0
1480075895.2,286046974.2,N,0.0,0.0
1480075915.9,286046974.7,N,0.0,0.0
1480075935.7,286046975.2,N,0.0,0.0
1480075955.6,286046975.3,N,0.0,0.0
1480075975.4,286046975.2,N,0.0,0.0
1480075995.3,286046975.4,N,0.0,0.0
1480076015.1,286046975.1,N,0.0,0.0
1480076016.0,286046975.1,N,0.0,0.0
1480076035.8,286046975.5,N,0.0,0.0
1480076055.7,286046974.7,N,0.0,0.0
1480076075.5,286046975.2,N,0.0,0.0
1480076095.3,286046972.8,N,0.0,0.0
1480076115.2,286046973.5,N,0.0,0.0
1480076135.0,286046973.6,N,0.0,0.0
1480076135.9,286046973.6,N,0.0,0.0
1480076155.8,286046971.6,N,0.0,0.0
1480076175.6,286046972.2,N,0.0,0.0
1480076195.4,286046969.8,N,0.0,0.0
1480076215.3,286046969.8,N,0.0,0.0
1480076235.1,286046970.0,N,0.0,0.0
1480076255.9,286046969.8,N,0.0,0.0
1480076275.7,286046972.1,N,0.0,0.0
1480076295.5,286046969.4,N,0.0,0.0
1480076315.4,286046972.0,N,0.0,0.0
1480076335.2,286046972.0,N,0.0,0.0
1480076355.0,286046971.5,N,0.0,0.0
1480076356.0,286046971.5,N,0.0,0.0
1480076375.8,286046971.8,N,0.0,0.0
1480076395.6,286046969.7,N,0.0,0.0
1480076415.5,286046969.5,N,0.0,0.0
1480076435.3,286046970.3,N,0.0,0.0
1480076455.1,286046970.3,N,0.0,0.0
1480076475.9,286046970.3,N,0.0,0.0
1480076495.7,286046968.4,N,0.0,0.0
1480076515.6,286046968.3,N,0.0,0.0
1480076535.4,286046968.3,N,0.0,0.0
1480076555.2,286046968.6,N,0.0,0.0
1480076575.1,286046968.5,N,0.0,0.0
1480076576.0,286046968.5,N,0.0,0.0
1480076595.8,286046968.9,N,0.0,0.0
1480076615.6,286046968.8,N,0.0,0.0
1480076635.5,286046966.4,N,0.0,0.0
1480076655.3,286046967.1,N,0.0,0.0
1480076675.2,286046967.3,N,0.0,0.0
1480076695.9,286046965.0,N,0.0,0.0
1480076715.7,286046965.2,N,0.0,0.0
1480076735.6,286046964.6,N,0.0,0.0
1480076755.4,286046964.5,N,0.0,0.0
1480076775.3,286046964.7,N,0.0,0.0
1480076795.1,286046965.0,N,0.0,0.0
1480076796.0,286046965.0,N,0.0,0.0
1480076815.8,286046964.9,N,0.0,0.0
1480076835.7,286046964.7,N,0.0,0.0
1480076855.5,286046965.5,N,0.0,0.0
1480076875.3,286046965.6,N,0.0,0.0
1480076895.2,286046966.0,N,0.0,0.0
1480076915.0,286046964.1,N,0.0,0.0
1480076915.9,286046964.1,N,0.0,0.0
1480076935.8,286046964.4,N,0.0,0.0
1480076955.6,286046961.8,N,0.0,0.0
1480076975.4,286046964.4,N,0.0,0.0
1480076995.3,286046963.8,N,0.0,0.0
1480077015.1,286046963.1,N,0.0,0.0
1480077035.9,286046964.1,N,0.0,0.0
1480077055.7,286046964.0,N,0.0,0.0
1480077075.5,286046964.4,N,0.0,0.0
1480077095.4,286046962.5,N,0.0,0.0
1480077115.2,286046962.7,N,0.0,0.0
1480077135.0,286046960.1,N,0.0,0.0
1480077136.0,286046960.1,N,0.0,0.0
1480077155.8,286046962.3,N,0.0,0.0
1480077175.6,286046962.6,N,0.0,0.0
1480077195.5,286046962.7,N,0.0,0.0
1480077215.3,286046960.0,N,0.0,0.0
1480077235.1,286046960.3,N,0.0,0.0
1480077255.9,286046960.6,N,0.0,0.0
1480077275.7,286046960.6,N,0.0,0.0
1480077295.6,286046960.8,N,0.0,0.0
1480077315.4,286046958.2,N,0.0,0.0
1480077335.2,286046959.3,N,0.0,0.0
1480077355.1,286046959.4,N,0.0,0.0
1480077356.0,286046959.4,N,0.0,0.0
1480077375.8,286046959.1,N,0.0,0.0
1480077395.6,286046958.7,N,0.0,0.0
1480077415.5,286046958.1,N,0.0,0.0
1480077435.3,286046959.4,N,0.0,0.0
1480077455.2,286046957.1,N,0.0,0.0
1480077475.9,286046957.6,N,0.0,0.0
1480077495.7,286046956.8,N,0.0,0.0
1480077515.6,286046956.8,N,0.0,0.0
1480077535.4,286046958.0,N,0.0,0.0
1480077555.3,286046955.6,N,0.0,0.0
1480077575.1,286046956.1,N,0.0,0.0
1480077576.0,286046956.1,N,0.0,0.0
1480077595.8,286046953.4,N,0.0,0.0
1480077615.7,286046956.2,N,0.0,0.0
1480077635.5,286046955.2,N,0.0,0.0
1480077655.3,286046955.3,N,0.0,0.0
1480077675.2,286046955.3,N,0.0,0.0
1480077695.0,286046957.2,N,0.0,0.0
1480077695.9,286046957.2,N,0.0,0.0
1480077715.8,286046957.1,N,0.0,0.0
1480077735.6,286046957.7,N,0.0,0.0
1480077755.4,286046957.1,N,0.0,0.0
1480077775.3,286046956.7,N,0.0,0.0
1480077795.1,286046957.2,N,0.0,0.0
1480077815.9,286046957.5,N,0.0,0.0
1480077835.7,286046957.3,N,0.0,0.0
1480077855.5,286046957.1,N,0.0,0.0
1480077875.4,286046956.8,N,0.0,0.0
1480077895.2,286046957.7,N,0.0,0.0
1480077915.0,286046956.8,N,0.0,0.0
1480077915.9,286046956.8,N,0.0,0.0
1480077935.8,286046959.1,N,0.0,0.0
1480077955.6,286046956.6,N,0.0,0.0
1480077975.5,286046959.2,N,0.0,0.0
1480077995.3,286046959.0,N,0.0,0.0
1480078015.1,286046958.2,N,0.0,0.0
1480078035.9,286046960.8,N,0.0,0.0
1480078055.7,286046960.5,N,0.0,0.0
1480078075.5,286046960.5,N,0.0,0.0
1480078095.4,286046960.2,N,0.0,0.0
1480078115.2,286046960.0,N,0.0,0.0
1480078135.1,286046960.6,N,0.0,0.0
1480078136.0,286046960.6,N,0.0,0.0
1480078155.8,286046960.9,N,0.0,0.0
1480078175.6,286046960.5,N,0.0,0.0
1480078195.5,286046960.9,N,0.0,0.0
1480078215.3,286046960.8,N,0.0,0.0
1480078235.2,286046958.1,N,0.0,0.0
1480078255.9,286046958.6,N,0.0,0.0
1480078275.7,286046961.1,N,0.0,0.0
1480078295.6,286046960.5,N,0.0,0.0
1480078315.4,286046960.1,N,0.0,0.0
1480078335.2,286046960.1,N,0.0,0.0
1480078355.1,286046960.4,N,0.0,0.0
1480078356.0,286046960.4,N,0.0,0.0
1480078375.8,286046959.8,N,0.0,0.0
1480078395.7,286046962.3,N,0.0,0.0
1480078415.5,286046961.9,N,0.0,0.0
1480078435.3,286046961.8,N,0.0,0.0
1480078455.2,286046961.6,N,0.0,0.0
1480078475.0,286046962.0,N,0.0,0.0
1480078475.9,286046962.0,N,0.0,0.0
1480078495.8,286046961.5,N,0.0,0.0
1480078515.6,286046963.6,N,0.0,0.0
1480078535.4,286046963.3,N,0.0,0.0
1480078555.3,286046963.0,N,0.0,0.0
1480078575.1,286046963.0,N,0.0,0.0
1480078595.8,286046963.0,N,0.0,0.0
1480078615.7,286046962.9,N,0.0,0.0
1480078635.5,286046965.9,N,0.0,0.0
1480078655.4,286046965.9,N,0.0,0.0
1480078675.2,286046965.7,N,0.0,0.0
1480078695.0,286046965.3,N,0.0,0.0
1480078695.9,286046965.3,N,0.0,0.0
1480078715.8,286046965.8,N,0.0,0.0
1480078735.6,286046965.5,N,0.0,0.0
1480078755.4,286046965.8,N,0.0,0.0
1480078775.3,286046965.7,N,0.0,0.0
1480078795.1,286046965.2,N,0.0,0.0
